Aérodrome :
LOGIN :

S'inscrire | Disclaimer

   EN    FR    IT 

 










Légende :    VFR   VFR Marginal   IFR   IFR Intensif   IFR Très Intensif
Visi : 
Plafond : 
>= 8 km
>= 3000ft
5 à 8 km
1000 à 3000 ft
1500m à 5 km
500 à 1000 ft
800 à 1500m
200 à 500 ft
< 800m
< 200 ft
Symboles :   Orages  Brouillard  Fortes neiges  Fortes précipitations  Vent > 20 kt
SIGMETs :   Divers  Orages  Givrage  Turbulence  Onde Orograph.  Cendres Volcan.






- Altitude de l'aérodrome : 659 ft
- Code IATA : LYN


LFLY - Lyon Bron

DERNIER METAR :
  • 202130Z AUTO 20015G25KT CAVOK 12/03 Q1004 TEMPO 18030G45KT

METARs EXPIRÉS :
  • 202100Z AUTO 21014G24KT CAVOK 12/03 Q1005 TEMPO 18030G45KT
  • 202030Z AUTO 21016G30KT 170V270 CAVOK 12/03 Q1005 TEMPO 18030G45KT
  • 202000Z AUTO 21015G27KT 180V250 CAVOK 12/03 Q1005 TEMPO 18030G45KT
  • 201930Z AUTO 22012G23KT 110V270 CAVOK 12/03 Q1005 TEMPO 18030G45KT
  • 201900Z AUTO 19021G35KT CAVOK 12/03 Q1005 TEMPO 18030G45KT

TAF TAF LFLY
Valide du 20 à 18h jusqu'au 21 à 18h UTC


201700Z 2018/2118 18020G35KT CAVOK
TEMPO 2018/2103 18030G45KT
ATIS : +33 4 72 15 87 96



MET'MAP, la Météo Aéronautique d'un coup d'oeil ! - Copyright ORBIFLY Décembre 2007 - Disclaimer

ORBIFLY MET'MAP TEAM :

Programmation & Développement : Alexandra Zaïnal
Sur une idée originale de : Baudouin d'Aumeries
Assistance à la programmation : Marc-Olivier Méhu
Soutien technique & logistique : Manuel Goepfert

Contact : metmap@orbifly.com




SOURCES & CREDITS :

   NOAA